This demonstration page uses our WeatherBlox Daily Observations layout. Learn more.

Left ArrowRight Arrow

36.17497, -115.13722

Hourly Observations for September 16, 2020

Temp ( °F °C ) Dew Point ( °F °C ) Humidity (%) Winds ( mph kmh ) Pressure ( in mb ) Visibility ( mi km ) Precip ( " mm )
12:53 am 00:53 Clear 83 28.3 35 1.7 18 18 NW 8 13 29.95 1014 10 16 N/A
1:53 am 01:53 Clear 83 28.3 34 1.1 17 17 NNW 9 15 29.95 1014 10 16 N/A
2:53 am 02:53 Clear 83 28.3 33 0.6 17 17 WNW 9 15 29.95 1014 10 16 N/A
3:53 am 03:53 Clear 84 28.9 32 undefined 15 15 NNW 14 22 29.94 1014 10 16 N/A
4:53 am 04:53 Clear 84 28.9 32 undefined 15 15 NNW 12 19 29.95 1014 10 16 N/A
5:53 am 05:53 Clear 81 27.2 32 undefined 17 17 NW 9 15 29.97 1015 10 16 N/A
6:53 am 06:53 Sunny 80 26.7 32 undefined 17 17 NW 12 19 29.99 1016 10 16 N/A
7:53 am 07:53 Sunny 84 28.9 33 0.6 16 16 NW 9 15 30.00 1016 10 16 N/A
8:53 am 08:53 Sunny 89 31.7 33 0.6 14 14 NNW 9 15 30.00 1016 10 16 N/A
9:53 am 09:53 Sunny 92 33.3 33 0.6 12 12 NNW 6 9 30.01 1016 10 16 N/A
10:53 am 10:53 Sunny 96 35.6 32 undefined 10 10 E 5 7 30.00 1016 10 16 N/A
11:53 am 11:53 Sunny 97 36.1 33 0.6 10 10 SE 6 9 29.98 1015 10 16 N/A
12:53 pm 12:53 Sunny 99 37.2 33 0.6 10 10 ESE 6 9 29.96 1015 10 16 N/A
1:53 pm 13:53 Sunny 103 39.4 31 -0.6 8 8 VRB 5 7 29.93 1014 10 16 N/A
2:53 pm 14:53 Sunny 103 39.4 27 -2.8 7 7 ESE 6 9 29.91 1013 10 16 N/A
3:53 pm 15:53 Sunny 103 39.4 26 -3.3 6 6 S 9 15 29.88 1012 10 16 N/A
4:53 pm 16:53 Sunny 102 38.9 27 -2.8 7 7 S 5 7 29.87 1012 10 16 N/A
5:53 pm 17:53 Sunny 101 38.3 27 -2.8 7 7 N N/A 29.86 1011 10 16 N/A
6:53 pm 18:53 Clear 98 36.7 28 -2.2 8 8 ENE 3 6 29.87 1011 10 16 N/A
7:53 pm 19:53 Clear 96 35.6 30 -1.1 10 10 S 3 6 29.87 1012 10 16 N/A
8:53 pm 20:53 Clear 90 32.2 34 1.1 14 14 WNW 5 7 29.89 1012 10 16 N/A
9:53 pm 21:53 Clear 90 32.2 30 -1.1 12 12 NW 7 11 29.90 1012 10 16 N/A
10:53 pm 22:53 Clear 88 31.1 30 -1.1 12 12 WNW 9 15 29.89 1012 10 16 N/A
11:53 pm 23:53 Clear 87 30.6 30 -1.1 13 13 WNW 10 17 29.89 1012 10 16 N/A

Powered by AerisWeather